User: anonymous   Login
Location: Columbus
(29.5618°N, 96.6770°W)
Time: 16:09:23
(UTC-05:00)
Language:

Cosmos 2056 Rocket - Orbit

View from above orbital plane
View from above orbital plane
View from above satellite
View from above satellite

Ground track
Ground track

The orbit data is extracted from the following two-line orbital elements,

1 20433U 90004B   17294.92293110 +.00000078 +00000-0 +35582-4 0  9997
2 20433 074.0341 123.5010 0041631 222.8728 239.9695 14.36004099453114
Epoch (UTC): 21 October 2017 22:09:01
Eccentricity: 0.0041631
inclination: 74.0341°
perigee height: 742 km
apogee height: 801 km
right ascension of ascending node: 123.5010°
argument of perigee: 222.8728°
revolutions per day: 14.36004099
mean anomaly at epoch: 239.9695°
orbit number at epoch: 45311

The dashed part of the orbit path shows where the satellite is in the earth's shadow,  

DLR